Location: Byhalia Creek
(34.8270°N, 89.8040°W)
Time: 08:42:46
(UTC+00:00)

Cosmos 494 Rocket - Pass Details

Date: 22 April 2026
Orbit: 737 x 766 km, 74.1° (Epoch: 14 May)

Event Time Altitude Azimuth Distance (km) Brightness Sun altitude
Rises 01:04:11 0° 341° (NNW) 3,216 7.8 -6.3°
Reaches altitude 10° 01:06:33 10° 341° (NNW) 2,291 7.1 -6.7°
Maximum altitude 01:11:45 84° 255° (WSW) 770 4.1 -7.7°
Drops below altitude 10° 01:16:58 10° 167° (SSE) 2,290 6.1 -8.7°
Sets 01:19:19 0° 166° (SSE) 3,214 6.9 -9.2°
